Date String (YYYY-MM-DD hh:mm:ss) UTC,Instrument flags,absolute air pressure of the measurement (hPa),sample flow rate (lpm),inlet stack bypass flow (lpm),air temperature of the measurement (°C),ambient temperature measured by the external sensor (°C),aerosol sample conditioner tube jacket temperature (°C),OPC LED temperature (°C),internal box temperature (°C),relative humidity of the measurement (%),span deviation,mass concentration of particles derived from Lorenz-Mie calculation of OPC scattering (μg/m³),mass concentration of particles derived from Lorenz-Mie calculation of OPC scattering (μg/m³),mass concentration of particles derived from Lorenz-Mie calculation of OPC scattering (μg/m³)
DateTimeUTC,F1_M11,P_M11,Q1_M11,Q2_M11,T1_M11,T2_M11,T3_M11,T4_M11,T5_M11,U1_M11,ZSPAN_M11,X2_M11,X0_M11,X1_M11
2023-11-01 03:00:00,SystemResetWarning,0834.5,5.00,000.00,024.6,023.3,000.0,033.1,026.0,11.0,0001.4,0007.74,0012.87,0007.16
2023-11-01 03:01:00,SystemResetWarning,0834.4,5.00,000.00,024.6,023.3,000.0,033.1,026.0,11.0,0000.5,0007.68,0012.79,0007.12
2023-11-01 03:02:00,SystemResetWarning,0834.4,5.01,000.00,024.6,023.3,000.0,033.1,026.0,11.0,-000.1,0007.64,0011.53,0007.10
2023-11-01 03:03:00,SystemResetWarning,0834.4,5.00,000.00,024.6,023.3,000.0,033.1,026.0,10.9,-000.1,0007.59,0011.52,0007.06
2023-11-01 03:04:00,SystemResetWarning,0834.4,5.00,000.00,024.6,023.3,000.0,033.0,026.0,10.8,-000.2,0007.58,0011.71,0007.05
2023-11-01 03:05:00,SystemResetWarning,0834.4,5.00,000.00,024.6,023.3,000.0,033.0,026.0,10.8,-000.6,0007.63,0011.65,0007.10
2023-11-01 03:06:00,SystemResetWarning,0834.4,5.00,000.00,024.6,023.3,000.0,033.0,026.0,10.8,-000.6,0007.67,0011.68,0007.14
2023-11-01 03:07:00,SystemResetWarning,0834.4,5.00,000.00,024.6,023.3,000.0,033.0,025.9,10.7,-000.0,0007.70,0011.70,0007.19
2023-11-01 03:08:00,SystemResetWarning,0834.3,5.00,000.00,024.6,023.3,000.0,033.0,025.9,10.7,0000.6,0007.74,0011.71,0007.25
2023-11-01 03:09:00,SystemResetWarning,0834.3,5.00,000.00,024.5,023.3,000.0,033.0,026.0,10.7,0000.8,0007.76,0011.74,0007.31
2023-11-01 03:10:00,SystemResetWarning,0834.4,4.99,000.00,024.5,023.3,000.0,033.0,026.0,10.7,0002.1,0007.72,0011.47,0007.27
2023-11-01 03:11:00,SystemResetWarning,0834.4,4.99,000.00,024.5,023.3,000.0,033.0,025.9,10.8,0002.0,0007.67,0011.41,0007.23
2023-11-01 03:12:00,SystemResetWarning,0834.4,5.00,000.00,024.5,023.3,000.0,033.0,026.0,11.0,0002.6,0007.70,0011.46,0007.23
2023-11-01 03:13:00,SystemResetWarning,0834.4,4.99,000.00,024.5,023.2,000.0,033.0,026.0,10.9,0002.6,0007.77,0011.57,0007.24
2023-11-01 03:14:00,SystemResetWarning,0834.4,5.00,000.00,024.5,023.2,000.0,033.0,025.9,10.8,0002.8,0007.84,0011.46,0007.28
2023-11-01 03:15:00,SystemResetWarning,0834.3,5.00,000.00,024.5,023.3,000.0,033.0,025.9,10.7,0002.9,0007.88,0011.34,0007.32
2023-11-01 03:16:00,SystemResetWarning,0834.4,5.01,000.00,024.5,023.3,000.0,033.0,026.0,10.7,0002.8,0007.88,0012.19,0007.31
2023-11-01 03:17:00,SystemResetWarning,0834.4,5.01,000.00,024.5,023.3,000.0,033.0,026.0,10.7,0003.3,0007.89,0012.21,0007.31
2023-11-01 03:18:00,SystemResetWarning,0834.4,5.00,000.00,024.5,023.3,000.0,033.0,025.9,10.7,0003.3,0007.90,0012.36,0007.31
2023-11-01 03:19:00,SystemResetWarning,0834.4,5.00,000.00,024.5,023.3,000.0,032.9,025.9,10.8,0003.0,0007.93,0012.41,0007.32
2023-11-01 03:20:00,SystemResetWarning,0834.4,4.99,000.00,024.5,023.3,000.0,032.9,025.9,10.7,0003.7,0007.95,0012.42,0007.32
2023-11-01 03:21:00,SystemResetWarning,0834.5,5.00,000.00,024.5,023.2,000.0,032.9,025.9,10.8,0003.7,0008.00,0012.39,0007.37
2023-11-01 03:22:00,SystemResetWarning,0834.5,4.99,000.00,024.5,023.2,000.0,032.9,025.9,10.8,0004.2,0008.11,0012.53,0007.46
2023-11-01 03:23:00,SystemResetWarning,0834.5,5.00,000.00,024.5,023.2,000.0,032.9,025.8,10.8,0004.5,0008.20,0012.68,0007.53
2023-11-01 03:24:00,SystemResetWarning,0834.5,5.00,000.00,024.4,023.2,000.0,032.9,025.9,10.8,0005.0,0008.26,0012.70,0007.61
2023-11-01 03:25:00,SystemResetWarning,0834.5,5.00,000.00,024.4,023.2,000.0,032.9,025.8,10.7,0005.1,0008.28,0012.68,0007.64
2023-11-01 03:26:00,SystemResetWarning,0834.5,5.00,000.00,024.4,023.2,000.0,032.9,025.8,10.7,0005.2,0008.31,0012.76,0007.66
2023-11-01 03:27:00,SystemResetWarning,0834.5,5.00,000.00,024.4,023.2,000.0,032.9,025.8,10.7,0005.3,0008.30,0011.93,0007.65
2023-11-01 03:28:00,SystemResetWarning,0834.5,5.01,000.00,024.4,023.2,000.0,032.9,025.9,10.7,0005.4,0008.27,0012.18,0007.63
2023-11-01 03:29:00,SystemResetWarning,0834.5,5.00,000.00,024.4,023.2,000.0,032.9,025.9,10.7,0005.4,0008.25,0012.27,0007.61
2023-11-01 03:30:00,SystemResetWarning,0834.5,4.98,000.00,024.4,023.2,000.0,032.9,025.9,10.7,0005.7,0008.20,0012.48,0007.58
2023-11-01 03:31:00,SystemResetWarning,0834.4,4.99,000.00,024.4,023.2,000.0,032.9,025.9,10.7,0005.2,0008.15,0012.52,0007.55
2023-11-01 03:32:00,SystemResetWarning,0834.4,5.00,000.00,024.4,023.2,000.0,032.9,025.9,10.7,0004.8,0008.12,0012.47,0007.53
2023-11-01 03:33:00,SystemResetWarning,0834.4,5.00,000.00,024.4,023.2,000.0,032.9,025.9,10.7,0003.1,0008.10,0012.96,0007.51
2023-11-01 03:34:00,SystemResetWarning,0834.4,5.00,000.00,024.4,023.2,000.0,032.9,025.9,10.7,0002.8,0008.01,0012.93,0007.47
2023-11-01 03:35:00,SystemResetWarning,0834.4,5.00,000.00,024.4,023.2,000.0,032.9,025.8,10.7,0004.5,0007.87,0012.73,0007.38
2023-11-01 03:36:00,SystemResetWarning,0834.4,5.00,000.00,024.4,023.2,000.0,032.9,025.8,10.7,0004.4,0007.76,0012.62,0007.29
2023-11-01 03:37:00,SystemResetWarning,0834.3,5.00,000.00,024.4,023.2,000.0,032.9,025.8,10.7,0006.4,0007.66,0012.52,0007.19
2023-11-01 03:38:00,SystemResetWarning,0834.4,5.00,000.00,024.4,023.2,000.0,032.8,025.8,10.7,0006.5,0007.62,0012.58,0007.15
2023-11-01 03:39:00,SystemResetWarning,0834.3,5.00,000.00,024.4,023.2,000.0,032.8,025.8,10.7,0003.4,0007.61,0012.77,0007.16
2023-11-01 03:40:00,SystemResetWarning,0834.4,5.00,000.00,024.4,023.2,000.0,032.8,025.8,10.7,0003.3,0007.60,0012.38,0007.17
2023-11-01 03:41:00,SystemResetWarning,0834.3,5.00,000.00,024.4,023.2,000.0,032.8,025.7,10.7,0001.3,0007.65,0012.33,0007.20
2023-11-01 03:42:00,SystemResetWarning,0834.6,5.00,000.00,024.4,023.1,000.0,032.8,025.7,10.7,0005.7,0007.70,0012.41,0007.24
2023-11-01 03:43:00,SystemResetWarning,0834.5,4.99,000.00,024.4,023.1,000.0,032.8,025.8,10.7,0004.4,0007.81,0012.58,0007.32
2023-11-01 03:44:00,SystemResetWarning,0834.5,4.99,000.00,024.4,023.1,000.0,032.8,025.7,10.7,0005.2,0007.93,0012.78,0007.41
2023-11-01 03:45:00,SystemResetWarning,0834.2,5.00,000.00,024.4,023.1,000.0,032.8,025.7,10.7,0004.2,0008.05,0012.60,0007.52
2023-11-01 03:46:00,SystemResetWarning,0834.5,5.00,000.00,024.4,023.1,000.0,032.8,025.7,10.7,0003.3,0008.20,0012.82,0007.65
2023-11-01 03:47:00,SystemResetWarning,0834.4,5.00,000.00,024.4,023.1,000.0,032.8,025.7,10.7,0003.6,0008.31,0013.06,0007.74
2023-11-01 03:48:00,SystemResetWarning,0834.3,5.00,000.00,024.4,023.1,000.0,032.8,025.7,10.7,0003.7,0008.36,0013.22,0007.79
2023-11-01 03:49:00,SystemResetWarning,0834.3,5.00,000.00,024.3,023.1,000.0,032.8,025.7,10.7,0003.8,0008.42,0014.10,0007.86
2023-11-01 03:50:00,SystemResetWarning,0834.4,5.00,000.00,024.3,023.1,000.0,032.8,025.7,10.7,0004.4,0008.45,0013.84,0007.90
2023-11-01 03:51:00,SystemResetWarning,0834.4,5.00,000.00,024.3,023.1,000.0,032.8,025.7,10.7,0004.6,0008.49,0013.82,0007.94
2023-11-01 03:52:00,SystemResetWarning,0834.4,5.01,000.00,024.3,023.1,000.0,032.8,025.7,10.7,0004.8,0008.52,0013.86,0007.97
2023-11-01 03:53:00,SystemResetWarning,0834.3,5.01,000.00,024.3,023.1,000.0,032.8,025.7,10.7,0004.9,0008.55,0013.75,0008.01
2023-11-01 03:54:00,SystemResetWarning,0834.4,5.00,000.00,024.3,023.1,000.0,032.8,025.7,10.7,0004.6,0008.54,0013.86,0008.01
2023-11-01 03:55:00,SystemResetWarning,0834.4,5.00,000.00,024.3,023.1,000.0,032.8,025.7,10.7,0004.2,0008.47,0013.62,0007.93
2023-11-01 03:56:00,SystemResetWarning,0834.4,5.00,000.00,024.3,023.0,000.0,032.8,025.7,10.7,0004.5,0008.45,0013.66,0007.88
2023-11-01 03:57:00,SystemResetWarning,0834.4,5.00,000.00,024.3,023.0,000.0,032.8,025.6,10.7,0004.4,0008.40,0013.65,0007.84
2023-11-01 03:58:00,SystemResetWarning,0834.4,5.00,000.00,024.3,023.0,000.0,032.7,025.6,10.7,0003.7,0008.35,0013.43,0007.79
2023-11-01 03:59:00,SystemResetWarning,0834.4,5.00,000.00,024.3,023.0,000.0,032.7,025.6,10.7,0003.1,0008.37,0013.41,0007.83
